Reflectivity
-20 26 27 34 33 22 13 8 -7 18 22 8 -20 -20 -20 -20 -20 -20 -20 -20 -20 -20 -20 -20 -20 -20 -20 -20 -20 -20 -20 -20 -20 -20 -20 -20 -20 -20 -20 -2 -20 -20 -20
-20 3 16 18 29 28 1 8 4 7 5 9 5 2 -18 -20 -20 -20 -20 -20 -20 -20 -20 -20 -20 -20 -20 -20 -20 -20 -20 -20 -20 -20 -20 -20 -20 -2 9 -14 -11 -20 4
-20 -13 -11 -9 29 19 26 1 -1 21 6 15 -6 -20 -20 -20 -20 -20 -20 -16 -20 -20 -20 -10 2 -15 -20 -12 -20 -20 -19 -11 -13 12 16 -20 -20 -13 25 11 -5 -5 2
-20 -12 27 17 14 36 28 27 30 22 4 17 23 29 -19 -17 -20 -20 -0 -19 -11 -16 -20 9 -10 5 14 27 4 12 17 26 28 12 -1 -8 -20 -20 -8 -3 8 -6 22
-20 -20 22 29 10 32 41 46 42 33 40 28 29 32 31 31 16 7 16 7 17 7 1 30 25 -14 6 13 36 29 27 18 1 8 10 -19 -18 -20 16 11 31 12 15
-20 -20 -20 6 16 23 29 33 34 39 37 39 38 30 36 38 33 23 2 6 26 20 24 27 30 28 27 15 23 30 28 7 11 9 -15 -16 -20 -17 -20 -15 5 4 -9
-14 -20 -20 5 33 22 28 29 33 35 31 36 39 35 43 40 31 30 26 35 28 29 32 32 31 30 11 -2 -13 13 -10 -1 -16 -3 -11 -15 13 -20 -20 -9 -1 -3 -12
-16 -20 -15 -18 14 27 28 28 34 21 21 28 34 46 46 42 39 47 33 41 33 27 32 22 27 -8 -0 -20 -20 -20 -20 -20 -20 -20 -20 -20 -20 -19 3 10 9 2 -20
-20 -20 -20 -20 -16 1 29 21 29 22 9 27 39 42 32 40 37 37 36 29 31 32 -7 -8 -9 -14 -20 -20 -20 -20 -20 -20 -20 -20 -20 -20 -20 -20 -7 -13 8 15 9
-20 -20 -16 -11 -20 -20 -20 -20 -20 -7 -7 1 21 28 29 31 30 25 33 24 9 0 -20 -20 -20 -20 -20 -20 -20 -20 -20 -20 -20 -20 -20 -20 -20 -20 -20 -20 -16 -3 6
-3 -1 -20 -20 -20 -20 -20 11 22 -7 -10 -17 2 24 10 27 23 15 14 7 -10 -20 -20 -20 -20 -20 -20 -20 -20 -20 -20 -20 -20 -20 -20 -20 -20 -20 -20 -20 -20 -20 -18
34 11 -20 -20 -20 -20 -20 20 -15 -19 -20 -10 -20 -20 -18 -20 -4 -9 -20 -20 -20 -20 -20 -20 -20 -20 -20 -20 -20 -20 -20 -20 -20 -20 -20 -20 -20 -20 -20 -20 -20 -20 -20
23 14 28 1 4 7 -17 27 -20 -20 -20 -20 -20 -20 -20 20 -20 -15 -10 -20 -20 -20 -20 -20 -20 -20 -20 -20 -20 -20 -20 -20 -20 -20 -20 -20 -20 -20 -20 -20 -20 -20 -20
12 18 7 4 16 23 8 -8 -20 -20 -20 -20 -13 9 -20 -20 -5 -20 -20 -20 -20 -20 -20 -20 -20 -20 -20 -20 -20 -20 -20 -20 -20 -20 -20 -20 -20 -20 -20 -20 -20 -20 -20
-16 6 -9 -19 -20 -13 -19 -20 -20 -20 -20 -20 -20 -20 -20 -20 -20 -20 -20 -20 -20 -20 -20 -20 -20 -20 -20 -20 -20 -20 -20 -20 -20 -20 -20 -20 -20 -20 -20 -20 -20 -20 -20
-20 -20 -17 -20 -20 -20 -20 -20 -20 -20 -20 -20 -20 -20 -20 -20 -20 -20 -20 -20 -20 -20 -20 -20 -20 -20 -20 -20 -20 -20 -20 -20 -20 -20 -20 -20 -20 -20 -20 -20 -20 -20 -20
-20 -20 -20 -20 -20 -20 -20 -20 -20 -20 -20 -20 -20 -20 -20 -20 -20 -20 -20 -20 -20 -20 -20 -20 -20 -20 -20 -20 -20 -20 -20 -20 -20 -20 -20 -20 -20 -20 -20 -20 -20 -8 7
-20 -20 -20 -20 -20 -20 -20 -20 -20 -20 -20 -1 -20 -20 -20 -20 -20 -20 -20 -20 -20 -20 -20 -20 -20 -20 -20 -20 -20 -20 -20 -20 -20 -20 -20 -20 -20 -20 -20 -20 -20 -20 -11
-20 -20 -20 -20 -20 -20 -20 -20 -20 -20 -20 -20 -20 -20 -20 -20 -20 -20 -20 -20 -20 -20 -20 -20 -20 -20 -20 -20 -20 -20 -20 -20 -20 -20 -20 -20 -20 -20 -19 -20 -20 -20 -19
-20 -20 -20 -20 -20 -20 -20 -20 -20 -20 -20 -20 -20 -20 -20 -20 -20 -20 -20 -20 -20 -20 -20 -20 -20 -16 -20 -20 -20 -20 -20 -20 -20 -20 -20 -20 -20 -20 -20 -20 -20 -20 -20
-20 -20 -20 -20 -20 -20 -20 -20 -20 -20 -20 -20 -20 -20 -20 -20 -20 -20 -20 -20 -20 -20 -20 -20 -20 -20 -20 -20 -20 -20 -20 -20 -20 -20 -20 -20 -20 -20 -20 -15 -20 -20 -20
-20 -20 -20 -20 -20 -20 -20 -20 -20 -20 -20 -20 -20 -20 -20 -20 -20 -20 -20 -20 -20 -20 -20 -20 -20 -20 -20 -20 -20 -20 -20 -20 -20 -20 -20 -20 -20 -20 -20 -20 -20 -20 -18
-20 -20 -20 -20 -20 -20 -20 -20 -20 -20 -20 -20 -20 -20 -20 -20 -20 -20 -20 -20 -20 -20 -20 -20 -17 -20 -20 -20 -20 -20 -20 -20 -20 -20 -16 -19 -20 -20 -20 -20 -20 -20 -20
-20 -20 -20 -20 -20 -13 -13 -20 -10 -18 -20 -20 -20 -20 -20 -20 -20 -20 -20 -20 -20 -20 -20 -20 -20 -20 -20 -20 -20 -20 -20 -20 -20 -20 -20 -16 -20 -20 -20 -20 -20 -20 -20
-20 -20 -20 -20 -20 -20 -12 6 4 21 24 23 30 31 21 19 23 12 -4 -7 -16 -20 -12 7 -20 -20 -20 -20 -20 -20 -20 -20 -20 -20 -20 -20 -20 -20 -20 -20 -20 -20 -20
-20 -20 -20 -20 -20 -20 -20 -20 -20 -20 -12 9 8 8 24 20 9 34 13 16 22 24 16 -15 -20 -20 -20 -20 -20 -20 -14 -7 -17 -20 -20 -20 -20 -20 -20 -20 -20 -20 -20
Wind_Speed
8 6 17 15 15 13 15 15 14 13 12 11 11 9 9 8 8 7 11 12 10 11 10 7 7 7 7 6 5 3 3 2 1 1 1 0 2 1 2 3 4 5 4
7 6 10 12 11 14 13 12 13 12 11 8 8 5 7 5 6 6 8 9 10 10 9 8 7 8 6 5 6 5 2 2 3 2 2 1 2 1 1 2 2 2 2
7 4 10 15 10 5 5 11 10 10 11 10 8 6 6 4 4 6 6 7 9 8 8 7 4 4 2 3 5 5 4 4 3 3 1 1 2 1 2 2 2 1 0
7 5 7 11 14 12 8 9 7 12 6 8 11 13 11 8 5 4 4 5 7 7 6 7 6 6 4 3 3 4 3 3 4 3 3 2 2 3 2 1 1 2 1
9 6 7 5 7 10 16 14 9 6 11 4 9 6 4 4 4 4 8 7 5 6 7 9 10 10 7 7 4 4 6 5 3 3 2 3 4 4 3 1 1 1 3
8 5 4 6 6 6 8 14 14 15 10 18 6 6 5 4 6 6 7 5 5 5 7 8 8 9 8 8 9 7 6 6 4 2 4 3 2 2 2 1 2 3 2
4 6 6 5 4 6 9 10 16 15 14 10 12 15 7 6 9 7 4 5 5 6 10 9 8 5 6 6 6 6 4 5 5 6 3 3 4 2 2 2 3 3 1
6 6 6 6 8 8 8 10 12 14 13 13 10 7 11 4 6 8 4 7 7 6 8 8 6 7 7 6 5 4 4 5 3 3 2 2 3 2 3 4 5 4 4
8 7 7 6 3 5 8 7 10 9 11 11 11 10 15 15 12 10 6 5 7 6 9 10 8 8 8 7 6 4 4 3 2 2 2 2 2 2 2 2 2 2 3
10 7 6 6 4 2 4 5 8 11 9 9 7 8 8 8 8 8 7 7 8 9 10 10 9 8 8 8 7 5 4 4 3 2 3 1 1 3 3 3 3 3 5
10 8 8 7 4 5 5 5 7 9 8 7 7 10 9 10 9 9 8 8 9 9 10 10 10 9 8 7 8 7 6 5 4 3 3 1 3 2 2 2 2 3 3
5 6 6 4 4 4 5 5 6 7 8 8 9 9 10 9 10 10 10 9 10 9 10 10 10 9 8 8 8 8 6 5 4 3 2 1 2 3 3 2 3 3 2
5 5 6 5 4 3 4 5 5 7 7 8 10 10 9 9 11 11 10 9 10 10 9 9 9 9 8 8 8 8 6 5 4 4 4 4 4 3 3 3 4 3 2
8 7 6 4 3 3 3 5 5 6 7 8 8 9 9 9 10 9 10 9 9 10 9 9 9 8 8 8 7 8 6 6 4 5 4 4 3 3 4 3 3 3 3
11 9 8 6 5 4 5 5 6 5 5 8 8 8 8 9 10 10 9 9 9 9 9 9 9 8 7 5 7 8 5 5 4 3 2 2 2 3 3 2 3 3 3
10 9 8 6 6 3 4 4 5 5 5 7 7 7 9 9 9 10 10 9 8 8 8 8 8 8 5 12 12 8 5 4 3 3 3 3 4 4 5 2 3 4 4
7 8 8 6 4 2 3 4 4 5 6 8 9 9 9 10 8 8 9 9 8 7 8 6 7 8 6 11 11 10 4 3 2 2 2 3 3 4 4 4 4 4 7
9 8 6 4 3 1 3 6 6 6 5 5 6 6 8 9 8 9 9 8 7 8 6 4 6 6 3 7 8 9 4 3 1 1 1 1 3 4 4 4 4 2 2
6 8 7 6 2 2 4 6 5 5 5 7 7 8 8 9 8 7 7 6 7 5 3 4 5 5 4 5 6 7 4 2 1 1 1 1 2 4 3 1 3 3 1
4 8 9 4 3 2 4 4 5 5 4 3 4 5 6 8 7 7 8 4 5 6 5 5 4 5 4 5 5 7 3 2 0 0 1 2 3 5 4 3 2 3 2
7 6 5 5 4 3 5 5 3 3 4 6 6 5 5 6 6 6 3 5 5 6 5 5 4 3 6 5 7 8 4 3 3 2 1 1 4 5 4 6 3 3 2
7 8 7 8 7 4 3 3 3 1 3 3 5 5 4 4 5 7 5 6 7 7 6 3 3 5 5 8 8 7 7 7 4 3 2 2 6 5 5 4 7 5 3
5 4 5 6 8 8 4 4 3 2 3 4 4 5 5 4 5 7 7 5 5 4 4 4 4 3 3 4 6 6 8 8 3 3 5 6 7 6 5 6 5 4 3
5 4 6 8 8 8 8 7 6 4 3 2 2 3 4 4 4 2 3 4 5 5 4 3 4 4 3 3 3 3 3 5 4 3 4 4 3 5 5 4 1 1 3
5 5 6 6 7 7 8 8 7 6 3 3 2 1 2 3 4 4 5 5 4 4 4 5 4 3 4 3 5 4 2 3 4 3 1 1 2 3 3 3 3 2 2
3 4 5 5 5 6 7 7 7 6 3 2 2 1 1 3 2 1 3 6 8 9 10 8 6 4 7 5 5 7 8 8 8 3 3 3 4 5 4 4 4 4 5
Wind_Direction
298 257 172 186 168 169 173 175 169 169 160 162 168 175 176 169 169 181 182 187 190 193 198 201 195 188 196 196 186 170 197 182 125 328 288 322 354 284 298 263 241 242 236
275 250 185 167 177 175 170 171 172 161 160 168 169 174 169 183 176 172 179 184 188 192 198 200 194 190 186 182 183 175 132 134 204 182 177 228 152 139 62 9 282 279 317
211 212 173 179 161 178 170 172 175 174 167 170 155 130 128 124 171 184 180 187 179 181 191 192 174 168 176 192 173 166 169 169 186 224 175 208 250 337 39 10 34 26 67
147 159 164 159 161 156 222 180 165 196 155 166 170 169 174 172 193 169 152 160 175 179 178 152 167 134 134 147 183 181 216 167 176 194 228 237 165 201 253 146 139 59 67
123 136 145 157 123 150 176 176 150 183 213 194 172 162 168 172 140 154 166 169 181 190 164 155 160 150 144 176 198 209 187 207 207 193 146 222 238 242 232 168 280 260 212
125 137 133 123 140 155 153 138 152 177 213 209 157 165 195 196 184 174 166 153 158 163 172 153 169 168 176 178 190 186 206 212 227 193 209 189 198 202 192 241 237 230 205
108 84 81 96 109 186 172 150 156 162 158 188 237 202 201 222 225 171 150 144 177 192 172 165 178 169 182 169 161 177 168 174 186 205 190 225 248 208 222 206 249 265 209
89 96 117 141 165 182 168 143 150 147 160 177 190 119 140 264 243 237 199 192 189 177 148 133 147 154 145 140 139 136 138 149 145 173 215 267 269 264 249 252 267 263 245
24 31 59 83 147 169 170 165 150 145 161 173 158 180 164 189 188 177 173 153 157 150 133 132 127 133 132 130 130 117 112 114 83 57 41 10 21 334 317 286 275 264 272
346 14 34 55 80 138 119 117 136 149 147 150 153 143 152 154 135 134 143 116 111 115 115 118 123 117 111 112 119 122 107 102 93 112 103 91 294 311 315 284 268 267 259
345 350 21 18 55 96 107 121 131 127 126 128 135 134 134 127 126 121 116 112 118 122 121 125 123 118 113 112 110 100 97 99 94 75 57 335 327 315 313 311 278 266 253
321 317 2 354 41 93 124 132 126 118 125 122 116 114 116 117 112 115 120 124 119 114 122 124 117 116 104 96 103 100 88 93 106 94 91 24 352 343 339 333 320 300 298
56 46 360 6 27 71 118 114 107 119 113 120 121 118 117 117 118 121 125 121 124 117 112 109 111 109 108 106 91 93 97 98 91 85 78 48 18 355 339 334 318 315 289
63 61 38 30 58 58 80 96 93 106 113 110 115 119 121 123 119 119 116 117 114 110 107 105 107 106 115 106 108 96 98 88 74 66 63 61 35 358 333 327 326 315 298
34 39 33 29 33 60 85 84 82 87 109 110 118 116 113 115 116 109 105 106 107 112 115 115 107 103 96 103 102 92 87 81 75 68 49 32 357 337 324 310 310 302 288
17 24 30 34 32 44 74 94 105 110 115 104 100 111 116 114 110 115 116 108 102 102 106 104 117 119 111 103 100 94 93 82 68 52 23 4 349 333 331 358 350 301 284
9 17 15 8 29 73 105 108 112 117 116 125 135 131 125 117 115 114 114 117 116 113 99 120 133 113 98 109 109 103 97 96 44 57 40 7 352 332 333 332 10 12 349
351 347 1 2 344 163 119 124 124 116 118 119 116 124 126 124 134 133 129 122 122 129 140 122 89 105 131 130 130 119 124 137 151 68 58 302 330 314 313 317 312 326 329
335 325 325 317 332 162 133 123 117 123 134 153 157 156 142 133 135 132 133 128 124 111 136 142 149 153 157 165 160 149 161 168 130 73 46 325 295 297 302 298 297 302 315
354 335 333 328 54 85 128 113 127 131 138 159 150 137 136 141 146 149 147 138 138 143 154 160 168 173 174 205 184 166 192 176 338 55 49 308 296 275 270 197 252 282 290
353 358 10 28 5 131 136 118 132 155 161 149 144 141 151 154 147 136 133 135 126 142 159 176 180 196 220 215 209 198 191 201 213 224 280 266 277 275 277 205 208 231 174
3 7 21 18 10 40 89 110 119 116 128 140 137 143 150 155 152 137 139 151 158 167 176 168 218 228 228 228 226 217 220 217 215 223 211 232 255 259 266 259 213 232 172
16 12 32 33 25 25 39 78 19 67 132 139 151 152 147 145 157 161 167 162 165 167 192 202 221 243 211 236 239 241 240 250 224 197 215 227 241 256 271 276 225 225 163
16 11 43 41 36 28 37 36 17 27 73 87 117 145 148 161 160 151 161 176 187 198 197 201 231 234 231 225 223 218 253 260 266 215 218 215 233 241 244 249 253 160 203
12 20 36 50 43 26 29 19 11 19 68 91 109 137 178 200 188 203 197 201 212 185 189 218 214 223 231 229 208 190 202 244 242 179 168 196 232 243 238 229 223 219 219
39 39 35 42 37 41 35 21 12 19 29 81 64 51 138 231 216 223 255 230 230 225 222 217 202 220 226 213 228 238 244 247 237 184 203 224 232 242 242 236 236 228 230